Simultaneous Nadir Overpasses (SNOs) Predictions

Prediction of SNOs between NOAA-19 and TERRA Satellite Orbit:

Table of predicted SNOs for the next 14.0 days since TLE Epoch: 1/19/2015
Index Date (NOAA-19) Time (NOAA-19) Lat,Lon (NOAA-19) SZA (NOAA-19 ) Date (TERRA) Time (TERRA) Lat,Lon (TERRA) SZA (TERRA ) Distance(km) Time Diff (sec)
1 01/19/2015 07:51:38 -72.00,-116.21 87.73 01/19/2015 07:52:47 -71.90,-114.62 87.83 55.99 69
2 01/19/2015 08:42:31 71.39, 52.17 91.66 01/19/2015 08:42:22 71.38, 52.15 91.64 1.84 9
3 01/19/2015 09:33:12 -70.51,-139.04 89.23 01/19/2015 09:32:05 -70.55,-141.50 89.19 91.22 67
4 01/21/2015 13:26:05 71.44, -18.77 91.23 01/21/2015 13:26:38 71.46, -18.79 91.25 2.40 33
5 01/21/2015 14:17:01 -71.36, 148.63 88.86 01/21/2015 14:16:08 -71.35, 148.66 88.88 1.77 53
6 01/23/2015 18:09:42 71.65, -90.01 90.94 01/23/2015 18:10:53 71.59, -89.65 90.87 14.42 71
7 01/23/2015 19:00:35 -71.44, 77.64 89.29 01/23/2015 19:00:24 -71.42, 77.71 89.31 3.11 11
8 01/25/2015 23:44:08 -71.47, 6.73 89.79 01/25/2015 23:44:40 -71.48, 6.73 89.78 1.65 32
9 01/26/2015 00:35:12 71.35, 174.17 90.09 01/26/2015 00:34:08 71.32, 174.12 90.06 3.33 64
10 01/28/2015 04:27:43 -71.60, -64.37 90.22 01/28/2015 04:28:55 -71.58, -64.17 90.24 7.14 72
11 01/28/2015 05:18:46 71.41, 103.20 89.59 01/28/2015 05:18:23 71.42, 103.21 89.59 1.00 23
12 01/30/2015 10:02:20 71.48, 32.23 89.07 01/30/2015 10:02:38 71.50, 32.27 89.09 3.06 18
13 01/30/2015 10:53:14 -71.38,-160.32 91.05 01/30/2015 10:52:08 -71.40,-160.27 91.03 3.01 66
14 02/01/2015 14:45:54 71.55, -38.76 88.53 02/01/2015 14:46:53 71.57, -38.69 88.54 3.37 59
15 02/01/2015 15:36:47 -71.41, 128.76 91.63 02/01/2015 15:36:24 -71.41, 128.69 91.63 2.68 23




NCC Satellite Simultaneous Nadir Overpasses (SNOs) Prediction Service
